ドゥ・トイト-ハートレー彗星

79P/du Toit-Hartley (2018)

English version
Home page
Updated on June 27, 2021

---------------------------------------------------------------------

・ プロフィール

・ 軌道要素

Epoch 2018 Aug. 30.0 TT = JDT 2458360.5
T 2018 Sept. 13.34475 TT                                Nakano
q   1.1209323            (2000.0)            P               Q
n   0.19514008     Peri.  281.85022     -0.92325078     +0.38038603
a   2.9437780      Node   280.52625     -0.32765299     -0.85293516
e   0.6192198      Incl.    3.14768     -0.20062779     -0.35750256
P   5.05
From 190 observations 1986 Dec. 27-2013 Feb. 7, mean residual 0".7.
     Nongravitational parameters A1 = -0.14, A2 = +0.0006.

・ 光度変化

        m1 = 15.5 + 5 logΔ + 10.0 log r(t + 20)

---------------------------------------------------------------------

軌道要素はM.P.E.C. 2015-M77に掲載されたものです。
光度グラフはComet for Windowsで作成したものです。

---------------------------------------------------------------------

Copyright(C) Seiichi Yoshida (comet@aerith.net). All rights reserved.